Location: Saint-Hippolyte
(43.6394°N, 4.7559°E)
Time: 16:05:22
(UTC+00:00)

USA 215 - Pass Details

Date: 24 October 2020
Orbit: 1102 x 1106 km, 123.0° (Epoch: 23 November)

Event Time Altitude Azimuth Distance (km) Brightness Sun altitude
Exits shadow 20:04:45 54° 317° (NW) 1,323 3.8 -36.8°
Drops below altitude 10° 20:09:37 10° 311° (NW) 2,965 6.2 -37.6°
Sets 20:12:06 0° 311° (NW) 3,925 7.0 -38.0°
